Date,TemperatureHighF,TemperatureAvgF,TemperatureLowF,DewpointHighF,DewpointAvgF,DewpointLowF,HumidityHigh,HumidityAvg,HumidityLow,PressureMaxIn,PressureMinIn,WindSpeedMaxMPH,WindSpeedAvgMPH,GustSpeedMaxMPH,PrecipitationSumIn
2013-1-1,33.8,17.8,9.3,30.2,0.5,-9.6,89,46,36,29.97,29.65,20,10,29,0.00
2013-1-2,15.4,8.1,1.0,2.1,-4.3,-9.9,59,56,44,30.27,29.85,13,7,19,0.00
2013-1-3,14.9,4.4,-4.2,2.3,-6.9,-14.8,59,59,47,30.27,29.88,10,5,19,0.00
2013-1-4,34.7,28.3,15.4,18.9,12.7,-0.2,60,52,44,29.88,29.68,14,10,26,0.00
2013-1-5,35.1,23.7,14.5,18.0,4.4,-2.7,57,43,33,30.27,29.74,17,8,28,0.00
2013-1-6,34.2,25.6,17.8,24.4,13.4,0.5,81,60,45,30.18,29.85,10,6,16,0.00
2013-1-7,23.5,13.6,7.7,16.2,2.0,-8.3,83,60,44,30.39,30.03,10,5,17,0.00
2013-1-8,37.8,32.3,23.5,19.2,13.1,9.0,54,45,34,30.36,30.12,10,6,26,0.00
2013-1-9,41.9,34.5,25.2,30.0,15.7,10.2,80,47,33,30.33,29.82,17,7,26,0.00
2013-1-10,37.9,37.3,36.1,28.0,21.3,18.5,72,52,46,30.18,30.00,23,18,36,0.00
2013-1-17,24.8,11.0,5.9,6.4,-11.5,-16.4,45,35,33,30.24,29.97,12,8,24,0.00
2013-1-18,20.7,11.2,1.6,0.7,-11.7,-20.2,41,34,30,30.36,30.18,13,5,20,0.00
2013-1-19,41.0,31.2,19.0,16.9,10.1,1.6,80,43,31,30.18,29.68,11,8,25,0.00
2013-1-20,42.6,32.7,11.7,26.1,11.2,-6.0,81,41,31,30.00,29.32,20,11,33,0.00
2013-1-21,12.2,8.8,5.7,-5.4,-8.6,-11.4,44,44,44,30.06,29.85,9,6,15,0.00
2013-1-22,9.1,4.9,0.3,-8.3,-12.1,-16.4,44,44,44,30.12,29.82,18,6,26,0.00
2013-1-23,0.3,-5.2,-10.1,-16.4,-21.4,-26.0,44,44,44,30.24,30.09,13,6,19,0.00
2013-1-24,7.7,1.0,-8.3,-9.6,-15.7,-24.3,44,44,44,30.39,30.18,15,7,23,0.00
2013-1-25,10.6,5.7,-0.4,-7.1,-11.5,-17.0,44,44,44,30.41,30.12,15,6,21,0.00
2013-1-26,13.5,8.7,2.5,-4.4,-8.7,-14.4,44,44,44,30.30,30.12,10,5,15,0.00
2013-1-27,12.6,9.2,6.1,-5.1,-8.3,-11.0,44,44,44,30.47,30.30,10,6,17,0.00
2013-1-31,35.8,35.8,35.8,9.5,9.5,9.5,33,33,33,29.12,29.12,17,17,22,0.00